Change the Weather History Date:

Wednesday, March 20, 2013

  Actual Average (KRNO) Record (KRNO)
Temperature  
Mean Temperature 46 °F 46 °F  
Max Temperature 53 °F 59 °F 81 °F (2004)
Min Temperature 39 °F 34 °F 6 °F (1952)
Degree Days  
Heating Degree Days 19 19  
Month to date heating degree days 402  
Since 1 July heating degree days 4040  
Cooling Degree Days 0 0  
Month to date cooling degree days 0  
Year to date cooling degree days 0  
Moisture  
Dew Point 32 °F    
Average Humidity 57    
Maximum Humidity 75    
Minimum Humidity 41    
Precipitation  
Precipitation 0.00 in 0.02 in 0.45 in (1995)
Month to date precipitation 0.56  
Year to date precipitation 2.61  
Snow  
Snow 0.00 in 0.00 in 3.60 in (1946)
Month to date snowfall 1.5  
Since 1 July snowfall 20.5  
Snow Depth -    
Sea Level Pressure  
Sea Level Pressure 30.00 in    
Wind  
Wind Speed 18 mph (West)    
Max Wind Speed 43 mph    
Max Gust Speed 52 mph    
Visibility 10 miles    
Events Rain    
T = Trace of Precipitation, MM = Missing Value Source: NWS Daily Summary

Daily Weather History Graph

Daily Weather History Graph

Search for Another Location

Airport or City:

Trip Planner

Search our weather history database for the weather conditions in past years. The results will help you decide how hot, cold, wet, or windy it might be!

Date:

Astronomy

Mar. 20, 2013 Rise Set
Actual Time 7:02 AM PDT 7:11 PM PDT
Civil Twilight 6:35 AM PDT 7:38 PM PDT
Nautical Twilight 6:04 AM PDT 8:10 PM PDT
Astronomical Twilight 5:32 AM PDT 8:42 PM PDT
Moon 12:52 PM PDT (3/20) 2:44 AM PDT (3/20)
Length of Visible Light 13h 03m
Length of Day
12h 09m
First Quarter, 60% of the Moon is Illuminated
Mar 20
First Quarter
Mar 27
Full
Apr 2
Last Quarter
Apr 10
New
Apr 18
First Quarter

Hourly Weather History & Observations

Time (PDT) Temp. Windchill Dew Point Humidity Pressure Visibility Wind Dir Wind Speed Gust Speed Precip Events Conditions
12:15 AM 44.6 °F 41.4 °F 32.0 °F 61% 30.05 in 10.0 mi West 5.8 mph - N/A   Overcast
12:35 AM 44.6 °F 42.2 °F 32.0 °F 61% 30.05 in 10.0 mi NNW 4.6 mph - N/A   Overcast
12:55 AM 42.8 °F 39.3 °F 32.0 °F 66% 30.04 in 10.0 mi ENE 5.8 mph - N/A   Overcast
1:15 AM 46.4 °F 39.8 °F 32.0 °F 57% 30.02 in 10.0 mi South 16.1 mph 39.1 mph N/A   Overcast
1:35 AM 46.4 °F 39.5 °F 32.0 °F 57% 30.00 in 9.0 mi South 17.3 mph 27.6 mph N/A   Mostly Cloudy
1:55 AM 46.4 °F 41.5 °F 32.0 °F 57% 30.02 in 10.0 mi West 10.4 mph 16.1 mph N/A   Overcast
2:15 AM 46.4 °F 40.7 °F 32.0 °F 57% 30.02 in 10.0 mi WSW 12.7 mph 27.6 mph N/A   Overcast
2:35 AM 44.6 °F 40.2 °F 32.0 °F 61% 30.03 in 10.0 mi WSW 8.1 mph 19.6 mph N/A   Mostly Cloudy
2:55 AM 44.6 °F 38.8 °F 32.0 °F 61% 30.03 in 10.0 mi SW 11.5 mph 24.2 mph N/A   Mostly Cloudy
3:15 AM 44.6 °F 43.1 °F 32.0 °F 61% 30.02 in 10.0 mi SW 3.5 mph - N/A   Overcast
3:35 AM 44.6 °F 37.2 °F 32.0 °F 61% 30.03 in 10.0 mi WSW 17.3 mph 27.6 mph N/A   Overcast
3:55 AM 44.6 °F 37.4 °F 32.0 °F 61% 30.02 in 10.0 mi WSW 16.1 mph 21.9 mph N/A   Scattered Clouds
4:15 AM 42.8 °F 35.4 °F 32.0 °F 66% 30.02 in 10.0 mi WSW 15.0 mph 20.7 mph N/A   Clear
4:35 AM 42.8 °F 34.3 °F 32.0 °F 66% 30.02 in 10.0 mi WSW 19.6 mph 31.1 mph N/A   Clear
4:55 AM 41.0 °F 31.6 °F 32.0 °F 70% 30.01 in 10.0 mi WSW 20.7 mph 26.5 mph N/A Rain Light Rain
5:15 AM 41.0 °F 30.2 °F 32.0 °F 70% 30.02 in 10.0 mi West 27.6 mph 35.7 mph N/A   Mostly Cloudy
5:35 AM 41.0 °F 30.9 °F 32.0 °F 70% 30.01 in 10.0 mi West 24.2 mph 38.0 mph N/A   Mostly Cloudy
5:55 AM 41.0 °F 31.9 °F 32.0 °F 70% 30.00 in 10.0 mi West 19.6 mph 28.8 mph N/A   Mostly Cloudy
6:15 AM 39.2 °F 29.6 °F 32.0 °F 75% 30.01 in 10.0 mi West 19.6 mph 26.5 mph N/A   Partly Cloudy
6:35 AM 39.2 °F 30.5 °F 32.0 °F 75% 30.02 in 10.0 mi WNW 16.1 mph 23.0 mph N/A   Clear
6:55 AM 39.2 °F 30.2 °F 32.0 °F 75% 30.02 in 10.0 mi WNW 17.3 mph 24.2 mph N/A   Mostly Cloudy
7:15 AM 39.2 °F 32.5 °F 32.0 °F 75% 30.02 in 10.0 mi West 10.4 mph 17.3 mph N/A   Scattered Clouds
7:35 AM 42.8 °F 34.3 °F 32.0 °F 66% 30.01 in 10.0 mi WSW 19.6 mph 28.8 mph N/A   Clear
7:55 AM 44.6 °F 35.9 °F 32.0 °F 61% 29.99 in 10.0 mi WSW 23.0 mph 35.7 mph N/A   Clear
8:35 AM 44.6 °F 37.4 °F 32.0 °F 61% 30.00 in 10.0 mi West 16.1 mph 27.6 mph N/A   Clear
8:55 AM 44.6 °F 38.1 °F 32.0 °F 61% 30.01 in 10.0 mi WSW 13.8 mph 19.6 mph N/A   Clear
9:35 AM 44.6 °F 36.9 °F 32.0 °F 61% 30.02 in 10.0 mi WNW 18.4 mph 21.9 mph N/A   Scattered Clouds
9:55 AM 44.6 °F 36.4 °F 32.0 °F 61% 30.02 in 10.0 mi WNW 20.7 mph 26.5 mph N/A   Scattered Clouds
10:15 AM 46.4 °F 40.1 °F 32.0 °F 57% 30.02 in 10.0 mi West 15.0 mph 27.6 mph N/A   Partly Cloudy
10:35 AM 46.4 °F 40.1 °F 32.0 °F 57% 30.03 in 10.0 mi West 15.0 mph 24.2 mph N/A   Scattered Clouds
10:55 AM 48.2 °F - 32.0 °F 54% 30.02 in 10.0 mi West 23.0 mph 32.2 mph N/A   Partly Cloudy
11:15 AM 50.0 °F - 32.0 °F 50% 30.01 in 10.0 mi WSW 21.9 mph 38.0 mph N/A   Clear
11:35 AM 51.8 °F - 32.0 °F 47% 29.99 in 10.0 mi West 26.5 mph 38.0 mph N/A   Clear
11:55 AM 53.6 °F - 32.0 °F 44% 29.99 in 10.0 mi WSW 34.5 mph 42.6 mph N/A   Clear
12:15 PM 53.6 °F - 32.0 °F 44% 29.98 in 10.0 mi WSW 34.5 mph 48.3 mph N/A   Clear
12:35 PM 53.6 °F - 32.0 °F 44% 29.97 in 10.0 mi West 40.3 mph 48.3 mph N/A   Clear
12:55 PM 53.6 °F - 32.0 °F 44% 29.98 in 10.0 mi WSW 34.5 mph 43.7 mph N/A   Clear
1:15 PM 53.6 °F - 32.0 °F 44% 29.96 in 10.0 mi WSW 33.4 mph 42.6 mph N/A   Clear
1:35 PM 53.6 °F - 32.0 °F 44% 29.96 in 10.0 mi WSW 34.5 mph 44.9 mph N/A   Clear
1:55 PM 51.8 °F - 32.0 °F 47% 29.98 in 10.0 mi WSW 31.1 mph 44.9 mph N/A   Clear
2:15 PM 51.8 °F - 32.0 °F 47% 29.97 in 10.0 mi West 42.6 mph 51.8 mph N/A   Clear
2:35 PM 51.8 °F - 32.0 °F 47% 29.96 in 10.0 mi West 36.8 mph 51.8 mph N/A   Clear
2:55 PM 51.8 °F - 32.0 °F 47% 29.97 in 10.0 mi West 31.1 mph 46.0 mph N/A   Clear
3:15 PM 53.6 °F - 32.0 °F 44% 29.96 in 10.0 mi West 27.6 mph 40.3 mph N/A   Clear
3:35 PM 53.6 °F - 32.0 °F 44% 29.99 in 10.0 mi West 21.9 mph 35.7 mph N/A   Partly Cloudy
3:55 PM 51.8 °F - 32.0 °F 47% 29.99 in 10.0 mi West 19.6 mph 38.0 mph N/A   Mostly Cloudy
4:15 PM 53.6 °F - 30.2 °F 41% 29.98 in 10.0 mi West 26.5 mph 40.3 mph N/A   Scattered Clouds
4:35 PM 53.6 °F - 32.0 °F 44% 29.97 in 10.0 mi WSW 26.5 mph 33.4 mph N/A   Clear
4:55 PM 51.8 °F - 30.2 °F 44% 29.97 in 10.0 mi West 26.5 mph 38.0 mph N/A   Clear
5:15 PM 50.0 °F - 32.0 °F 50% 29.97 in 10.0 mi West 24.2 mph 33.4 mph N/A   Clear
5:55 PM 50.0 °F - 30.2 °F 47% 29.96 in 10.0 mi West 24.2 mph 33.4 mph N/A   Clear
6:15 PM 48.2 °F - 32.0 °F 54% 29.96 in 10.0 mi WSW 25.3 mph 31.1 mph N/A   Clear
6:35 PM 48.2 °F - 32.0 °F 54% 29.97 in 10.0 mi WNW 13.8 mph 24.2 mph N/A   Clear
6:55 PM 46.4 °F 39.5 °F 32.0 °F 57% 29.98 in 10.0 mi WNW 17.3 mph 31.1 mph N/A   Clear
7:15 PM 44.6 °F 36.6 °F 32.0 °F 61% 29.99 in 10.0 mi West 19.6 mph 25.3 mph N/A   Clear
7:35 PM 44.6 °F 35.7 °F 32.0 °F 61% 29.98 in 10.0 mi West 24.2 mph 31.1 mph N/A   Partly Cloudy
7:55 PM 44.6 °F 35.1 °F 32.0 °F 61% 29.98 in 10.0 mi West 27.6 mph 31.1 mph N/A   Clear
8:15 PM 44.6 °F 36.1 °F 32.0 °F 61% 29.98 in 10.0 mi WSW 21.9 mph 31.1 mph N/A   Clear
8:35 PM 44.6 °F 35.7 °F 32.0 °F 61% 29.98 in 10.0 mi WSW 24.2 mph 35.7 mph N/A   Clear
8:55 PM 44.6 °F 36.6 °F 32.0 °F 61% 29.98 in 10.0 mi WSW 19.6 mph 31.1 mph N/A   Partly Cloudy
9:15 PM 44.6 °F 37.8 °F 32.0 °F 61% 29.99 in 10.0 mi West 15.0 mph 27.6 mph N/A   Scattered Clouds
9:35 PM 44.6 °F 36.4 °F 30.2 °F 57% 30.00 in 10.0 mi WSW 20.7 mph 25.3 mph N/A   Partly Cloudy
9:55 PM 44.6 °F 36.1 °F 30.2 °F 57% 30.00 in 10.0 mi West 21.9 mph 25.3 mph N/A   Mostly Cloudy
10:15 PM 42.8 °F 32.7 °F 28.4 °F 57% 30.00 in 10.0 mi WSW 27.6 mph 33.4 mph N/A   Scattered Clouds
10:35 PM 44.6 °F 34.9 °F 28.4 °F 53% 29.99 in 10.0 mi WSW 28.8 mph 34.5 mph N/A   Clear
10:55 PM 42.8 °F 33.1 °F 28.4 °F 57% 29.98 in 10.0 mi West 25.3 mph 35.7 mph N/A   Clear
11:15 PM 42.8 °F 32.5 °F 28.4 °F 57% 29.96 in 10.0 mi West 28.8 mph 36.8 mph N/A   Clear
11:35 PM 42.8 °F 33.5 °F 26.6 °F 53% 29.97 in 10.0 mi West 23.0 mph 35.7 mph N/A   Clear
11:55 PM 42.8 °F 34.5 °F 26.6 °F 53% 29.99 in 10.0 mi West 18.4 mph 28.8 mph N/A   Clear